Wetterdaten: Donnerstag, 08.01.2015
Datum Zeit Temp. A. Feuchte A. Luftdruck Regen Wind Richtung Richtung Sonnenschein ET UV Solar Taupunkt Windchill Windben Empfang
08.01.2015 00:00 0,1 C 82 % 1032,4 hPa 0,0 l/m 0,0 km/h (0 Bft) S-SW 209 0 min 0,000 mm 0,0 UV-I 0 W/m -2,6 C 0,1 C 0,0 km/h (0 Bft) 0,00 %
08.01.2015 00:15 0,2 C 82 % 1032,4 hPa 0,0 l/m 0,0 km/h (0 Bft) SW 224 0 min 0,000 mm 0,0 UV-I 0 W/m -2,5 C 0,2 C 0,0 km/h (0 Bft) 0,00 %
08.01.2015 00:30 0,2 C 82 % 1032,5 hPa 0,0 l/m 0,0 km/h (0 Bft) S-SW 202 0 min 0,000 mm 0,0 UV-I 0 W/m -2,5 C 0,2 C 0,0 km/h (0 Bft) 0,00 %
08.01.2015 00:45 0,1 C 82 % 1032,2 hPa 0,0 l/m 0,0 km/h (0 Bft) S 183 0 min 0,000 mm 0,0 UV-I 0 W/m -2,6 C 0,1 C 0,0 km/h (0 Bft) 0,00 %
08.01.2015 01:00 -0,1 C 82 % 1032,3 hPa 0,0 l/m 0,0 km/h (0 Bft) S-SW 204 0 min 0,000 mm 0,0 UV-I 0 W/m -2,8 C -0,1 C 0,0 km/h (0 Bft) 0,00 %
08.01.2015 01:15 -0,2 C 82 % 1032,1 hPa 0,0 l/m 0,0 km/h (0 Bft) S-SW 196 0 min 0,000 mm 0,0 UV-I 0 W/m -2,9 C -0,2 C 0,0 km/h (0 Bft) 0,00 %
08.01.2015 01:30 -0,2 C 82 % 1031,8 hPa 0,0 l/m 0,0 km/h (0 Bft) S-SW 197 0 min 0,000 mm 0,0 UV-I 0 W/m -2,9 C -0,2 C 0,0 km/h (0 Bft) 0,00 %
08.01.2015 01:45 -0,2 C 83 % 1031,9 hPa 0,0 l/m 0,0 km/h (0 Bft) W-SW 250 0 min 0,000 mm 0,0 UV-I 0 W/m -2,7 C -0,2 C 0,0 km/h (0 Bft) 0,00 %
08.01.2015 02:00 -0,1 C 83 % 1031,9 hPa 0,0 l/m 0,0 km/h (0 Bft) O 101 0 min 0,000 mm 0,0 UV-I 0 W/m -2,6 C -0,1 C 0,0 km/h (0 Bft) 0,00 %
08.01.2015 02:15 -0,2 C 83 % 1031,9 hPa 0,0 l/m 0,0 km/h (0 Bft) SO 136 0 min 0,000 mm 0,0 UV-I 0 W/m -2,7 C -0,2 C 0,0 km/h (0 Bft) 0,00 %
08.01.2015 02:30 -0,2 C 83 % 1031,9 hPa 0,0 l/m 0,0 km/h (0 Bft) SO 129 0 min 0,000 mm 0,0 UV-I 0 W/m -2,7 C -0,2 C 0,0 km/h (0 Bft) 0,00 %
08.01.2015 02:45 -0,2 C 83 % 1032,0 hPa 0,0 l/m 0,0 km/h (0 Bft) SO 140 0 min 0,000 mm 0,0 UV-I 0 W/m -2,7 C -0,2 C 0,0 km/h (0 Bft) 0,00 %
08.01.2015 03:00 -0,2 C 83 % 1031,8 hPa 0,0 l/m 0,0 km/h (0 Bft) S 181 0 min 0,000 mm 0,0 UV-I 0 W/m -2,7 C -0,2 C 0,0 km/h (0 Bft) 0,00 %
08.01.2015 03:15 -0,2 C 83 % 1031,8 hPa 0,0 l/m 0,0 km/h (0 Bft) SW 225 0 min 0,000 mm 0,0 UV-I 0 W/m -2,7 C -0,2 C 0,0 km/h (0 Bft) 0,00 %
08.01.2015 03:30 -0,5 C 83 % 1032,1 hPa 0,0 l/m 0,0 km/h (0 Bft) SW 222 0 min 0,000 mm 0,0 UV-I 0 W/m -3,0 C -0,5 C 0,0 km/h (0 Bft) 0,00 %
08.01.2015 03:45 -0,6 C 84 % 1032,0 hPa 0,0 l/m 0,0 km/h (0 Bft) SW 216 0 min 0,000 mm 0,0 UV-I 0 W/m -3,0 C -0,6 C 0,0 km/h (0 Bft) 0,00 %
08.01.2015 04:00 -0,6 C 84 % 1032,0 hPa 0,0 l/m 0,0 km/h (0 Bft) S 174 0 min 0,000 mm 0,0 UV-I 0 W/m -3,0 C -0,6 C 0,0 km/h (0 Bft) 0,00 %
08.01.2015 04:15 -0,6 C 84 % 1031,7 hPa 0,0 l/m 0,0 km/h (0 Bft) S 174 0 min 0,000 mm 0,0 UV-I 0 W/m -3,0 C -0,6 C 0,0 km/h (0 Bft) 0,00 %
08.01.2015 04:30 -0,6 C 84 % 1031,4 hPa 0,0 l/m 0,0 km/h (0 Bft) S 174 0 min 0,000 mm 0,0 UV-I 0 W/m -3,0 C -0,6 C 0,0 km/h (0 Bft) 0,00 %
08.01.2015 04:45 -0,6 C 83 % 1031,3 hPa 0,0 l/m 0,0 km/h (0 Bft) S 174 0 min 0,000 mm 0,0 UV-I 0 W/m -3,1 C -0,6 C 0,0 km/h (0 Bft) 0,00 %
08.01.2015 05:00 -0,5 C 83 % 1031,3 hPa 0,0 l/m 0,0 km/h (0 Bft) S 174 0 min 0,000 mm 0,0 UV-I 0 W/m -3,0 C -0,5 C 0,0 km/h (0 Bft) 0,00 %
08.01.2015 05:15 -0,5 C 83 % 1031,3 hPa 0,0 l/m 0,0 km/h (0 Bft) S 174 0 min 0,000 mm 0,0 UV-I 0 W/m -3,0 C -0,5 C 0,0 km/h (0 Bft) 0,00 %
08.01.2015 05:30 -0,5 C 83 % 1031,1 hPa 0,0 l/m 0,0 km/h (0 Bft) S 174 0 min 0,000 mm 0,0 UV-I 0 W/m -3,0 C -0,5 C 0,0 km/h (0 Bft) 0,00 %
08.01.2015 05:45 -0,4 C 83 % 1031,2 hPa 0,0 l/m 0,0 km/h (0 Bft) S 174 0 min 0,000 mm 0,0 UV-I 0 W/m -2,9 C -0,4 C 0,0 km/h (0 Bft) 0,00 %
08.01.2015 06:00 -0,4 C 83 % 1031,4 hPa 0,0 l/m 0,0 km/h (0 Bft) S 174 0 min 0,000 mm 0,0 UV-I 0 W/m -2,9 C -0,4 C 0,0 km/h (0 Bft) 0,00 %
08.01.2015 06:15 -0,3 C 83 % 1031,5 hPa 0,0 l/m 0,0 km/h (0 Bft) S 174 0 min 0,000 mm 0,0 UV-I 0 W/m -2,8 C -0,3 C 0,0 km/h (0 Bft) 0,00 %
08.01.2015 06:30 -0,3 C 83 % 1031,4 hPa 0,0 l/m 0,0 km/h (0 Bft) S 175 0 min 0,000 mm 0,0 UV-I 0 W/m -2,8 C -0,3 C 0,0 km/h (0 Bft) 0,00 %
08.01.2015 06:45 -0,2 C 83 % 1031,2 hPa 0,0 l/m 0,0 km/h (0 Bft) S 175 0 min 0,000 mm 0,0 UV-I 0 W/m -2,7 C -0,2 C 0,0 km/h (0 Bft) 0,00 %
08.01.2015 07:00 -0,2 C 83 % 1031,3 hPa 0,0 l/m 0,0 km/h (0 Bft) S 175 0 min 0,000 mm 0,0 UV-I 0 W/m -2,7 C -0,2 C 0,0 km/h (0 Bft) 0,00 %
08.01.2015 07:15 -0,1 C 83 % 1031,5 hPa 0,0 l/m 0,0 km/h (0 Bft) S 189 0 min 0,000 mm 0,0 UV-I 0 W/m -2,6 C -0,1 C 0,0 km/h (0 Bft) 0,00 %
08.01.2015 07:30 0,1 C 83 % 1031,5 hPa 0,0 l/m 0,0 km/h (0 Bft) S 183 0 min 0,000 mm 0,0 UV-I 0 W/m -2,4 C 0,1 C 0,0 km/h (0 Bft) 0,00 %
08.01.2015 07:45 0,2 C 83 % 1031,4 hPa 0,0 l/m 0,0 km/h (0 Bft) S-SW 197 0 min 0,000 mm 0,0 UV-I 0 W/m -2,3 C 0,2 C 0,0 km/h (0 Bft) 0,00 %
08.01.2015 08:00 0,3 C 83 % 1031,4 hPa 0,0 l/m 0,0 km/h (0 Bft) S-SW 197 0 min 0,000 mm 0,0 UV-I 0 W/m -2,2 C 0,3 C 0,0 km/h (0 Bft) 0,00 %
08.01.2015 08:15 0,2 C 83 % 1031,3 hPa 0,0 l/m 0,0 km/h (0 Bft) SW 217 0 min 0,000 mm 0,0 UV-I 7 W/m -2,3 C 0,2 C 0,0 km/h (0 Bft) 0,00 %
08.01.2015 08:30 0,5 C 82 % 1031,3 hPa 0,0 l/m 0,0 km/h (0 Bft) SW 216 0 min 0,000 mm 0,0 UV-I 21 W/m -2,2 C 0,5 C 0,0 km/h (0 Bft) 0,00 %
08.01.2015 08:45 0,7 C 82 % 1031,5 hPa 0,0 l/m 0,0 km/h (0 Bft) SW 216 0 min 0,000 mm 0,0 UV-I 10 W/m -2,0 C 0,7 C 0,0 km/h (0 Bft) 0,00 %
08.01.2015 09:00 0,5 C 82 % 1031,3 hPa 0,0 l/m 0,0 km/h (0 Bft) S 173 0 min 0,000 mm 0,0 UV-I 8 W/m -2,2 C 0,5 C 0,0 km/h (0 Bft) 0,00 %
08.01.2015 09:15 0,6 C 82 % 1031,1 hPa 0,0 l/m 0,0 km/h (0 Bft) SW 216 0 min 0,000 mm 0,0 UV-I 20 W/m -2,1 C 0,6 C 0,0 km/h (0 Bft) 0,00 %
08.01.2015 09:30 0,8 C 82 % 1031,1 hPa 0,0 l/m 0,0 km/h (0 Bft) S-SW 197 0 min 0,000 mm 1,0 UV-I 36 W/m -1,9 C 0,8 C 0,0 km/h (0 Bft) 0,00 %
08.01.2015 09:45 1,2 C 82 % 1031,0 hPa 0,0 l/m 0,0 km/h (0 Bft) S-SW 202 0 min 0,000 mm 0,0 UV-I 78 W/m -1,5 C 1,2 C 0,0 km/h (0 Bft) 0,00 %
08.01.2015 10:00 1,3 C 82 % 1031,2 hPa 0,3 l/m 0,0 km/h (0 Bft) S-SW 205 0 min 0,000 mm 1,0 UV-I 60 W/m -1,4 C 1,3 C 0,0 km/h (0 Bft) 0,00 %
08.01.2015 10:15 1,2 C 82 % 1031,1 hPa 0,0 l/m 0,4 km/h (0 Bft) O-SO 108 0 min 0,000 mm 1,0 UV-I 59 W/m -1,5 C 1,2 C 4,0 km/h (1 Bft) 0,00 %
08.01.2015 10:30 1,4 C 81 % 1031,0 hPa 0,0 l/m 0,0 km/h (0 Bft) S 186 15 min 0,000 mm 1,0 UV-I 199 W/m -1,5 C 1,4 C 0,0 km/h (0 Bft) 0,00 %
08.01.2015 10:45 1,7 C 80 % 1030,8 hPa 0,0 l/m 0,0 km/h (0 Bft) S 178 15 min 0,000 mm 1,0 UV-I 210 W/m -1,4 C 1,7 C 0,0 km/h (0 Bft) 0,00 %
08.01.2015 11:00 2,2 C 84 % 1030,6 hPa 0,0 l/m 0,0 km/h (0 Bft) S 178 15 min 0,000 mm 1,0 UV-I 222 W/m -0,2 C 2,2 C 0,0 km/h (0 Bft) 0,00 %
08.01.2015 11:15 2,5 C 83 % 1030,2 hPa 0,0 l/m 0,0 km/h (0 Bft) S-SW 206 15 min 0,000 mm 1,0 UV-I 211 W/m -0,1 C 2,5 C 0,0 km/h (0 Bft) 0,00 %
08.01.2015 11:30 2,9 C 83 % 1029,8 hPa 0,0 l/m 0,0 km/h (0 Bft) SW 217 15 min 0,000 mm 1,0 UV-I 222 W/m 0,3 C 2,9 C 0,0 km/h (0 Bft) 0,00 %
08.01.2015 11:45 2,8 C 83 % 1029,9 hPa 0,0 l/m 0,0 km/h (0 Bft) S-SW 195 15 min 0,000 mm 1,0 UV-I 233 W/m 0,2 C 2,8 C 0,0 km/h (0 Bft) 0,00 %
08.01.2015 12:00 2,6 C 83 % 1029,7 hPa 0,0 l/m 0,4 km/h (0 Bft) S 173 15 min 0,000 mm 1,0 UV-I 211 W/m 0,0 C 2,6 C 4,0 km/h (1 Bft) 0,00 %
08.01.2015 12:15 2,2 C 79 % 1029,5 hPa 0,0 l/m 0,0 km/h (0 Bft) S 179 0 min 0,000 mm 1,0 UV-I 75 W/m -1,1 C 2,2 C 0,0 km/h (0 Bft) 0,00 %
08.01.2015 12:30 2,0 C 80 % 1029,3 hPa 0,0 l/m 0,0 km/h (0 Bft) O-SO 112 0 min 0,000 mm 1,0 UV-I 75 W/m -1,1 C 2,0 C 0,0 km/h (0 Bft) 0,00 %
08.01.2015 12:45 1,8 C 80 % 1029,1 hPa 0,0 l/m 0,0 km/h (0 Bft) SW 221 0 min 0,000 mm 1,0 UV-I 53 W/m -1,3 C 1,8 C 0,0 km/h (0 Bft) 0,00 %
08.01.2015 13:00 1,8 C 80 % 1028,9 hPa 0,0 l/m 0,0 km/h (0 Bft) S 184 0 min 0,000 mm 1,0 UV-I 49 W/m -1,3 C 1,8 C 0,0 km/h (0 Bft) 0,00 %
08.01.2015 13:15 1,8 C 80 % 1028,5 hPa 0,0 l/m 0,0 km/h (0 Bft) SW 234 0 min 0,000 mm 1,0 UV-I 60 W/m -1,3 C 1,8 C 0,0 km/h (0 Bft) 0,00 %
08.01.2015 13:30 1,6 C 80 % 1028,5 hPa 0,0 l/m 0,7 km/h (0 Bft) O-SO 104 0 min 0,000 mm 1,0 UV-I 55 W/m -1,5 C 1,6 C 4,0 km/h (1 Bft) 0,00 %
08.01.2015 13:45 1,5 C 80 % 1028,2 hPa 0,0 l/m 0,0 km/h (0 Bft) O-NO 60 0 min 0,000 mm 1,0 UV-I 83 W/m -1,6 C 1,5 C 0,0 km/h (0 Bft) 0,00 %
08.01.2015 14:00 1,6 C 81 % 1028,2 hPa 0,0 l/m 0,0 km/h (0 Bft) S 188 0 min 0,000 mm 1,0 UV-I 56 W/m -1,3 C 1,6 C 0,0 km/h (0 Bft) 0,00 %
08.01.2015 14:15 1,6 C 80 % 1028,1 hPa 0,0 l/m 0,0 km/h (0 Bft) W-NW 300 0 min 0,000 mm 1,0 UV-I 79 W/m -1,5 C 1,6 C 0,0 km/h (0 Bft) 0,00 %
08.01.2015 14:30 1,5 C 80 % 1028,3 hPa 0,0 l/m 0,0 km/h (0 Bft) O-NO 69 0 min 0,000 mm 1,0 UV-I 48 W/m -1,6 C 1,5 C 0,0 km/h (0 Bft) 0,00 %
08.01.2015 14:45 1,5 C 81 % 1028,2 hPa 0,0 l/m 0,4 km/h (0 Bft) W-SW 255 0 min 0,000 mm 0,0 UV-I 34 W/m -1,4 C 1,5 C 4,0 km/h (1 Bft) 0,00 %
08.01.2015 15:00 1,4 C 81 % 1028,3 hPa 0,0 l/m 0,0 km/h (0 Bft) NW 305 0 min 0,000 mm 0,0 UV-I 24 W/m -1,5 C 1,4 C 0,0 km/h (0 Bft) 0,00 %
08.01.2015 15:15 1,4 C 82 % 1028,3 hPa 0,0 l/m 0,0 km/h (0 Bft) NW 305 0 min 0,000 mm 0,0 UV-I 19 W/m -1,3 C 1,4 C 0,0 km/h (0 Bft) 0,00 %
08.01.2015 15:30 1,4 C 81 % 1028,3 hPa 0,0 l/m 0,0 km/h (0 Bft) S 173 0 min 0,000 mm 0,0 UV-I 8 W/m -1,5 C 1,4 C 0,0 km/h (0 Bft) 0,00 %
08.01.2015 15:45 1,6 C 81 % 1028,3 hPa 0,0 l/m 0,0 km/h (0 Bft) SW 215 0 min 0,000 mm 0,0 UV-I 7 W/m -1,3 C 1,6 C 0,0 km/h (0 Bft) 0,00 %
08.01.2015 16:00 1,6 C 81 % 1028,1 hPa 0,0 l/m 0,0 km/h (0 Bft) SW 236 0 min 0,000 mm 0,0 UV-I 0 W/m -1,3 C 1,6 C 0,0 km/h (0 Bft) 0,00 %
08.01.2015 16:15 1,5 C 81 % 1028,3 hPa 0,0 l/m 0,0 km/h (0 Bft) SW 221 0 min 0,000 mm 0,0 UV-I 0 W/m -1,4 C 1,5 C 0,0 km/h (0 Bft) 0,00 %
08.01.2015 16:30 1,5 C 81 % 1028,2 hPa 0,0 l/m 0,0 km/h (0 Bft) S-SW 203 0 min 0,000 mm 0,0 UV-I 0 W/m -1,4 C 1,5 C 0,0 km/h (0 Bft) 0,00 %
08.01.2015 16:45 1,5 C 81 % 1028,0 hPa 0,0 l/m 0,0 km/h (0 Bft) S-SW 210 0 min 0,000 mm 0,0 UV-I 0 W/m -1,4 C 1,5 C 0,0 km/h (0 Bft) 0,00 %
08.01.2015 17:00 1,4 C 82 % 1028,1 hPa 0,0 l/m 0,0 km/h (0 Bft) S-SW 212 0 min 0,000 mm 0,0 UV-I 0 W/m -1,3 C 1,4 C 0,0 km/h (0 Bft) 0,00 %
08.01.2015 17:15 1,3 C 82 % 1027,7 hPa 0,0 l/m 0,0 km/h (0 Bft) SW 226 0 min 0,000 mm 0,0 UV-I 0 W/m -1,4 C 1,3 C 0,0 km/h (0 Bft) 0,00 %
08.01.2015 17:30 1,4 C 82 % 1027,8 hPa 0,0 l/m 0,0 km/h (0 Bft) W-SW 256 0 min 0,000 mm 0,0 UV-I 0 W/m -1,3 C 1,4 C 0,0 km/h (0 Bft) 0,00 %
08.01.2015 17:45 1,4 C 82 % 1027,7 hPa 0,0 l/m 0,0 km/h (0 Bft) W-SW 247 0 min 0,000 mm 0,0 UV-I 0 W/m -1,3 C 1,4 C 0,0 km/h (0 Bft) 0,00 %
08.01.2015 18:00 1,6 C 82 % 1027,5 hPa 0,0 l/m 0,0 km/h (0 Bft) W-SW 256 0 min 0,000 mm 0,0 UV-I 0 W/m -1,1 C 1,6 C 0,0 km/h (0 Bft) 0,00 %
08.01.2015 18:15 1,9 C 82 % 1027,2 hPa 0,0 l/m 0,0 km/h (0 Bft) W-SW 256 0 min 0,000 mm 0,0 UV-I 0 W/m -0,8 C 1,9 C 0,0 km/h (0 Bft) 0,00 %
08.01.2015 18:30 2,2 C 81 % 1027,3 hPa 0,0 l/m 0,0 km/h (0 Bft) S-SW 200 0 min 0,000 mm 0,0 UV-I 0 W/m -0,7 C 2,2 C 0,0 km/h (0 Bft) 0,00 %
08.01.2015 18:45 2,2 C 81 % 1027,3 hPa 0,0 l/m 0,0 km/h (0 Bft) SW 225 0 min 0,000 mm 0,0 UV-I 0 W/m -0,7 C 2,2 C 0,0 km/h (0 Bft) 0,00 %
08.01.2015 19:00 2,5 C 84 % 1027,1 hPa 0,0 l/m 0,0 km/h (0 Bft) S-SW 202 0 min 0,000 mm 0,0 UV-I 0 W/m 0,1 C 2,5 C 0,0 km/h (0 Bft) 0,00 %
08.01.2015 19:15 2,4 C 84 % 1026,7 hPa 0,0 l/m 0,0 km/h (0 Bft) S-SW 198 0 min 0,000 mm 0,0 UV-I 0 W/m -0,0 C 2,4 C 0,0 km/h (0 Bft) 0,00 %
08.01.2015 19:30 2,7 C 82 % 1026,4 hPa 0,0 l/m 0,0 km/h (0 Bft) S-SW 203 0 min 0,000 mm 0,0 UV-I 0 W/m -0,1 C 2,7 C 0,0 km/h (0 Bft) 0,00 %
08.01.2015 19:45 3,1 C 80 % 1026,5 hPa 0,0 l/m 0,0 km/h (0 Bft) W-SW 242 0 min 0,000 mm 0,0 UV-I 0 W/m -0,0 C 3,1 C 0,0 km/h (0 Bft) 0,00 %
08.01.2015 20:00 3,3 C 80 % 1026,4 hPa 0,0 l/m 0,0 km/h (0 Bft) W-SW 252 0 min 0,000 mm 0,0 UV-I 0 W/m 0,2 C 3,3 C 0,0 km/h (0 Bft) 0,00 %
08.01.2015 20:15 3,2 C 79 % 1026,2 hPa 0,0 l/m 0,0 km/h (0 Bft) W-SW 254 0 min 0,000 mm 0,0 UV-I 0 W/m -0,1 C 3,2 C 0,0 km/h (0 Bft) 0,00 %
08.01.2015 20:30 3,2 C 79 % 1026,1 hPa 0,0 l/m 0,0 km/h (0 Bft) O-SO 122 0 min 0,000 mm 0,0 UV-I 0 W/m -0,1 C 3,2 C 0,0 km/h (0 Bft) 0,00 %
08.01.2015 20:45 3,4 C 77 % 1025,8 hPa 0,0 l/m 0,0 km/h (0 Bft) W-SW 250 0 min 0,000 mm 0,0 UV-I 0 W/m -0,2 C 3,4 C 0,0 km/h (0 Bft) 0,00 %
08.01.2015 21:00 4,1 C 74 % 1025,8 hPa 0,0 l/m 0,4 km/h (0 Bft) S-SW 207 0 min 0,000 mm 0,0 UV-I 0 W/m -0,1 C 4,1 C 4,0 km/h (1 Bft) 0,00 %
08.01.2015 21:15 3,9 C 74 % 1025,7 hPa 0,0 l/m 0,4 km/h (0 Bft) W-SW 252 0 min 0,000 mm 0,0 UV-I 0 W/m -0,3 C 3,9 C 4,0 km/h (1 Bft) 0,00 %
08.01.2015 21:30 4,0 C 73 % 1025,7 hPa 0,0 l/m 2,2 km/h (1 Bft) W 267 0 min 0,000 mm 0,0 UV-I 0 W/m -0,4 C 4,0 C 4,0 km/h (1 Bft) 0,00 %
08.01.2015 21:45 4,9 C 66 % 1025,5 hPa 0,0 l/m 0,7 km/h (0 Bft) NW 326 0 min 0,000 mm 0,0 UV-I 0 W/m -0,9 C 4,9 C 4,0 km/h (1 Bft) 0,00 %
08.01.2015 22:00 5,6 C 63 % 1025,7 hPa 0,0 l/m 1,4 km/h (1 Bft) N-NW 327 0 min 0,000 mm 0,0 UV-I 0 W/m -0,9 C 5,6 C 4,0 km/h (1 Bft) 0,00 %
08.01.2015 22:15 5,9 C 60 % 1025,9 hPa 0,0 l/m 4,0 km/h (1 Bft) O 79 0 min 0,000 mm 0,0 UV-I 0 W/m -1,3 C 5,9 C 7,9 km/h (2 Bft) 0,00 %
08.01.2015 22:30 6,0 C 63 % 1025,9 hPa 0,0 l/m 0,7 km/h (0 Bft) O-SO 108 0 min 0,000 mm 0,0 UV-I 0 W/m -0,5 C 6,0 C 4,0 km/h (1 Bft) 0,00 %
08.01.2015 22:45 5,9 C 69 % 1026,1 hPa 0,0 l/m 10,8 km/h (2 Bft) W-SW 253 0 min 0,000 mm 0,0 UV-I 0 W/m 0,7 C 2,5 C 15,8 km/h (3 Bft) 0,00 %
08.01.2015 23:00 5,6 C 71 % 1026,5 hPa 0,3 l/m 3,2 km/h (1 Bft) N-NO 29 0 min 0,000 mm 0,0 UV-I 0 W/m 0,8 C 5,6 C 7,9 km/h (2 Bft) 0,00 %
08.01.2015 23:15 5,5 C 73 % 1026,9 hPa 0,3 l/m 13,3 km/h (3 Bft) N-NW 346 0 min 0,000 mm 0,0 UV-I 0 W/m 1,1 C 0,6 C 19,8 km/h (3 Bft) 0,00 %
08.01.2015 23:30 5,5 C 73 % 1026,8 hPa 0,0 l/m 10,8 km/h (2 Bft) SW 231 0 min 0,000 mm 0,0 UV-I 0 W/m 1,1 C 2,1 C 15,8 km/h (3 Bft) 0,00 %
08.01.2015 23:45 5,9 C 71 % 1026,8 hPa 0,0 l/m 4,0 km/h (1 Bft) W 281 0 min 0,000 mm 0,0 UV-I 0 W/m 1,1 C 5,9 C 7,9 km/h (2 Bft) 0,00 %
_ Min-Zeit 03:45 22:15 21:45 - 00:00 - - - - - - 04:45 03:45 00:00 00:00
Minimum _ -0,6 C 60 % 1025,5 hPa - 0,0 km/h (0 Bft) - - - - - - -3,1 C -0,6 C 0,0 km/h (0 Bft) 0,00 %
_ Max-Zeit 22:30 03:45 00:30 10:00 23:15 - - 10:30 00:00 09:30 11:45 23:15 22:30 23:15 00:00
Maximum _ 6,0 C 84 % 1032,5 hPa 0,3 l/m 13,3 km/h
N-NW (3 Bft)
- - 15 min 0,000 mm 1,0 UV-I 233 W/m 1,1 C 6,0 C 19,8 km/h
N-NW (3 Bft)
0,00 %
Durchschnitt _ 1,5 C 80 % 1029,4 hPa #0,9 l/m 0,6 km/h (0 Bft) W - #1:45 h #0,000 mm 1,0 UV-I 82 W/m -1,5 C 1,4 C 1,2 km/h (1 Bft) 0,00 %